Zurück zum Katalog

STARLINK-32010

AktivKommunikationVLEO
NORAD 60279·PAYLOAD·🇺🇸 United States

Gestartet Jul 28, 2024 von Cape Canaveral Space Force Station

Loading…

Nächste Überflüge (nächste 24 Stunden)

TLE

AktuellSource: CelesTrak SupGP

Epoche: Sep 14, 2026, 21:24 UTC

1 60279C 24132B   26257.89215278  .00052849  00000+0  16996-2 0  2577
2 60279  53.1567 252.4949 0001306  97.5100 270.5673 15.31673331    14

Verfolge STARLINK-32010 in Echtzeit mit AllMySat

Download on the App Store